When you browse on this site, cookies collect data to enhance your experience and personalize the content and advertising you see.
Visit our Privacy Policy to learn more. By continuing to use the site, you agree to this use of cookies and data.
  • En España
  • Lista de países
  • Para 7 días
  • Temperatura del agua
  • Mapa Satelital
  • El tiempo en el mapa
  • Informadores
  • user-avatar
    Iniciar sesión

    Tiempo cada hora Quito

    Hoy, 24 Marzo, Domingo

    Tiempo Temperatura Precipitaciones Viento Presión Humedad
    00:00 +19°C° 0 mm 1 mps 622 mmHg 81%
    01:00 +18°C° 0 mm 1 mps 622 mmHg 84%
    02:00 +18°C° 0 mm 1 mps 622 mmHg 85%
    03:00 +18°C° 0 mm 1 mps 622 mmHg 86%
    04:00 +18°C° 0 mm 1 mps 621 mmHg 86%
    05:00 +18°C° 0 mm 1 mps 622 mmHg 85%
    06:00 +19°C° 0 mm 1 mps 622 mmHg 84%
    07:00 +19°C° 0 mm 1 mps 623 mmHg 83%
    08:00 +22°C° 0 mm 1 mps 623 mmHg 73%
    09:00 +24°C° 0 mm 2 mps 624 mmHg 63%
    10:00 +27°C° 0 mm 2 mps 625 mmHg 53%
    11:00 +27°C° 0 mm 3 mps 625 mmHg 51%
    12:00 +27°C° 0 mm 3 mps 624 mmHg 50%
    13:00 +28°C° 0 mm 4 mps 624 mmHg 48%
    14:00 +28°C° 0 mm 3 mps 623 mmHg 51%
    15:00 +27°C° 0 mm 2 mps 623 mmHg 54%
    16:00 +27°C° 0 mm 1 mps 622 mmHg 56%
    17:00 +25°C° 0 mm 1 mps 622 mmHg 60%
    18:00 +24°C° 0 mm 1 mps 622 mmHg 63%
    19:00 +22°C° 0 mm 1 mps 622 mmHg 66%
    20:00 +19°C° 0 mm 0 mps 622 mmHg 67%
    21:00 +19°C° 0 mm 0 mps 622 mmHg 67%
    22:00 +19°C° 0 mm 0 mps 623 mmHg 68%
    23:00 +18°C° 0 mm 0 mps 622 mmHg 72%

    Mañana, 25 Marzo, Lunes

    Tiempo Temperatura Precipitaciones Viento Presión Humedad
    00:00 +17°C° 0 mm 0 mps 621 mmHg 76%
    01:00 +16°C° 0 mm 0 mps 621 mmHg 80%
    02:00 +16°C° 0 mm 0 mps 621 mmHg 80%
    03:00 +16°C° 0 mm 0 mps 620 mmHg 80%
    04:00 +15°C° 0 mm 0 mps 620 mmHg 81%
    05:00 +16°C° 0 mm 0 mps 621 mmHg 80%
    06:00 +16°C° 0 mm 0 mps 621 mmHg 79%
    07:00 +17°C° 0 mm 0 mps 622 mmHg 78%
    08:00 +21°C° 0 mm 1 mps 623 mmHg 70%
    09:00 +23°C° 0 mm 2 mps 623 mmHg 63%
    10:00 +25°C° 0 mm 3 mps 624 mmHg 55%
    11:00 +26°C° 0 mm 3 mps 624 mmHg 52%
    12:00 +27°C° 0 mm 3 mps 623 mmHg 49%
    13:00 +28°C° 0 mm 4 mps 623 mmHg 46%
    14:00 +28°C° 0 mm 3 mps 622 mmHg 48%
    15:00 +28°C° 0 mm 3 mps 622 mmHg 50%
    16:00 +27°C° 0 mm 2 mps 621 mmHg 53%
    17:00 +25°C° 0 mm 2 mps 621 mmHg 59%
    18:00 +23°C° 0 mm 1 mps 621 mmHg 65%
    19:00 +21°C° 0 mm 1 mps 621 mmHg 71%
    20:00 +19°C° 0 mm 0 mps 621 mmHg 71%
    21:00 +18°C° 0 mm 0 mps 622 mmHg 71%
    22:00 +18°C° 0 mm 0 mps 622 mmHg 71%
    23:00 +18°C° 0 mm 0 mps 622 mmHg 73%

    Pasado mañana, 26 Marzo, Martes

    Tiempo Temperatura Precipitaciones Viento Presión Humedad
    00:00 +17°C° 0 mm 0 mps 622 mmHg 76%
    01:00 +16°C° 0 mm 0 mps 621 mmHg 78%
    02:00 +16°C° 0 mm 0 mps 621 mmHg 80%
    03:00 +18°C° 0 mm 1 mps 621 mmHg 82%
    04:00 +16°C° 0 mm 1 mps 620 mmHg 84%
    05:00 +18°C° 0 mm 1 mps 621 mmHg 84%
    06:00 +18°C° 0 mm 1 mps 621 mmHg 84%
    07:00 +18°C° 0 mm 1 mps 622 mmHg 84%
    08:00 +21°C° 0 mm 1 mps 623 mmHg 76%
    09:00 +23°C° 0 mm 1 mps 624 mmHg 68%
    10:00 +26°C° 0 mm 1 mps 625 mmHg 60%
    11:00 +27°C° 0 mm 1 mps 625 mmHg 54%
    12:00 +27°C° 0 mm 2 mps 624 mmHg 48%
    13:00 +28°C° 0 mm 2 mps 624 mmHg 42%
    14:00 +28°C° 0 mm 2 mps 623 mmHg 45%
    15:00 +27°C° 0 mm 2 mps 623 mmHg 48%
    16:00 +27°C° 0 mm 2 mps 622 mmHg 51%
    17:00 +25°C° 0 mm 1 mps 622 mmHg 57%
    18:00 +23°C° 0 mm 1 mps 622 mmHg 64%
    19:00 +19°C° 0 mm 0 mps 622 mmHg 70%
    20:00 +20°C° 0 mm 1 mps 622 mmHg 74%
    21:00 +18°C° 0 mm 2 mps 623 mmHg 79%
    22:00 +18°C° 0 mm 2 mps 623 mmHg 83%
    23:00 +17°C° 0 mm 2 mps 623 mmHg 84%

    27 Marzo, Miércoles

    Tiempo Temperatura Precipitaciones Viento Presión Humedad
    00:00 +18°C° 0 mm 1 mps 623 mmHg 86%
    01:00 +18°C° 0 mm 1 mps 622 mmHg 87%
    02:00 +18°C° 0.4 mm 1 mps 622 mmHg 89%
    03:00 +18°C° 0.4 mm 1 mps 622 mmHg 91%
    04:00 +18°C° 0.4 mm 1 mps 622 mmHg 93%
    05:00 +18°C° 0.1 mm 1 mps 623 mmHg 91%
    06:00 +18°C° 0.1 mm 1 mps 623 mmHg 90%
    07:00 +19°C° 0.1 mm 1 mps 624 mmHg 89%
    08:00 +21°C° 0.1 mm 1 mps 625 mmHg 81%
    09:00 +23°C° 0.1 mm 1 mps 626 mmHg 73%
    10:00 +24°C° 0.1 mm 2 mps 627 mmHg 65%
    11:00 +25°C° 0.5 mm 2 mps 626 mmHg 63%
    12:00 +26°C° 0.5 mm 2 mps 626 mmHg 60%
    13:00 +26°C° 0.5 mm 2 mps 625 mmHg 58%
    14:00 +26°C° 0.8 mm 2 mps 625 mmHg 63%
    15:00 +25°C° 0.8 mm 2 mps 624 mmHg 68%
    16:00 +24°C° 0.8 mm 2 mps 624 mmHg 74%
    17:00 +23°C° 0.8 mm 2 mps 624 mmHg 79%
    18:00 +21°C° 0.8 mm 1 mps 624 mmHg 84%
    19:00 +19°C° 0.8 mm 1 mps 624 mmHg 89%
    20:00 +19°C° 0 mm 1 mps 624 mmHg 89%
    21:00 +17°C° 0 mm 0 mps 624 mmHg 88%
    22:00 +17°C° 0 mm 0 mps 624 mmHg 88%
    23:00 +17°C° 0 mm 0 mps 624 mmHg 88%

    28 Marzo, Jueves

    Tiempo Temperatura Precipitaciones Viento Presión Humedad
    00:00 +16°C° 0 mm 0 mps 624 mmHg 89%
    01:00 +16°C° 0 mm 0 mps 623 mmHg 90%
    02:00 +16°C° 0 mm 0 mps 623 mmHg 92%
    03:00 +15°C° 0 mm 0 mps 623 mmHg 93%
    04:00 +14°C° 0 mm 0 mps 622 mmHg 95%
    05:00 +16°C° 0 mm 1 mps 623 mmHg 95%
    06:00 +16°C° 0 mm 1 mps 623 mmHg 94%
    07:00 +18°C° 0 mm 1 mps 624 mmHg 94%
    08:00 +19°C° 0 mm 2 mps 624 mmHg 85%
    09:00 +21°C° 0 mm 3 mps 625 mmHg 76%
    10:00 +24°C° 0 mm 3 mps 625 mmHg 66%
    11:00 +25°C° 0 mm 3 mps 625 mmHg 65%
    12:00 +25°C° 0 mm 3 mps 624 mmHg 63%
    13:00 +26°C° 0 mm 3 mps 624 mmHg 62%
    14:00 +25°C° 1.4 mm 3 mps 623 mmHg 68%
    15:00 +24°C° 1.4 mm 3 mps 623 mmHg 74%
    16:00 +22°C° 1.4 mm 3 mps 622 mmHg 79%
    17:00 +21°C° 0.4 mm 2 mps 622 mmHg 83%
    18:00 +19°C° 0.4 mm 2 mps 622 mmHg 87%
    19:00 +19°C° 0.4 mm 1 mps 623 mmHg 90%
    20:00 +19°C° 0 mm 1 mps 623 mmHg 91%
    21:00 +18°C° 0 mm 1 mps 623 mmHg 91%
    22:00 +18°C° 0 mm 1 mps 623 mmHg 91%
    23:00 +18°C° 0 mm 1 mps 623 mmHg 92%

    29 Marzo, Viernes

    Tiempo Temperatura Precipitaciones Viento Presión Humedad
    00:00 +18°C° 0 mm 1 mps 623 mmHg 93%
    01:00 +16°C° 0 mm 1 mps 622 mmHg 93%
    02:00 +15°C° 0 mm 0 mps 622 mmHg 93%
    03:00 +15°C° 0 mm 0 mps 622 mmHg 93%
    04:00 +15°C° 0 mm 0 mps 622 mmHg 92%
    05:00 +16°C° 0 mm 0 mps 622 mmHg 92%
    06:00 +18°C° 0 mm 1 mps 623 mmHg 91%
    07:00 +19°C° 0 mm 1 mps 623 mmHg 90%
    08:00 +20°C° 0.6 mm 1 mps 624 mmHg 86%
    09:00 +21°C° 0.6 mm 2 mps 624 mmHg 81%
    10:00 +22°C° 0.6 mm 3 mps 625 mmHg 76%
    11:00 +24°C° 1 mm 2 mps 624 mmHg 75%
    12:00 +24°C° 1 mm 2 mps 623 mmHg 74%
    13:00 +24°C° 1 mm 2 mps 623 mmHg 72%
    14:00 +25°C° 0.2 mm 2 mps 623 mmHg 70%
    15:00 +25°C° 0.2 mm 2 mps 622 mmHg 68%
    16:00 +25°C° 0.2 mm 2 mps 622 mmHg 66%
    17:00 +23°C° 0.8 mm 2 mps 622 mmHg 74%
    18:00 +20°C° 0.8 mm 2 mps 622 mmHg 82%
    19:00 +18°C° 0.8 mm 2 mps 622 mmHg 90%
    20:00 +18°C° 0 mm 2 mps 622 mmHg 90%
    21:00 +17°C° 0 mm 2 mps 622 mmHg 90%
    22:00 +18°C° 0 mm 1 mps 622 mmHg 90%
    23:00 +18°C° 0 mm 1 mps 622 mmHg 90%
    Mostrar más